TimeCDT,TemperatureF,Dew PointF,Humidity,Sea Level PressureIn,VisibilityMPH,Wind Direction,Wind SpeedMPH,Gust SpeedMPH,PrecipitationIn,Events,Conditions,WindDirDegrees,DateUTC
12:58 AM,69.1,64.9,87,29.97,10.0,Calm,Calm,-,N/A,,Clear,0,2013-05-22 05:58:00
1:58 AM,66.9,64.0,90,29.95,10.0,Calm,Calm,-,N/A,,Clear,0,2013-05-22 06:58:00
2:49 AM,68.0,66.2,94,29.96,7.0,Calm,Calm,-,N/A,,Partly Cloudy,0,2013-05-22 07:49:00
2:58 AM,68.0,66.0,93,29.95,7.0,Calm,Calm,-,N/A,,Scattered Clouds,0,2013-05-22 07:58:00
3:26 AM,68.0,66.2,94,29.96,5.0,Calm,Calm,-,N/A,,Mostly Cloudy,0,2013-05-22 08:26:00
3:35 AM,69.8,66.2,88,29.96,2.0,Calm,Calm,-,N/A,,Mostly Cloudy,0,2013-05-22 08:35:00
3:40 AM,68.0,66.2,94,29.96,1.0,Calm,Calm,-,N/A,,Mostly Cloudy,0,2013-05-22 08:40:00
3:45 AM,68.0,66.2,94,29.95,0.5,Calm,Calm,-,N/A,Fog,Fog,0,2013-05-22 08:45:00
3:58 AM,68.0,66.9,96,29.94,0.5,SSW,3.5,-,N/A,Fog,Fog,200,2013-05-22 08:58:00
4:24 AM,68.0,66.2,94,29.95,1.5,Calm,Calm,-,N/A,,Overcast,0,2013-05-22 09:24:00
4:29 AM,68.0,66.2,94,29.95,2.5,Calm,Calm,-,N/A,,Overcast,0,2013-05-22 09:29:00
4:36 AM,68.0,66.2,94,29.96,1.2,Calm,Calm,-,N/A,,Overcast,0,2013-05-22 09:36:00
4:42 AM,68.0,66.2,94,29.96,0.8,Calm,Calm,-,N/A,,Mist,0,2013-05-22 09:42:00
4:58 AM,69.1,66.9,93,29.96,0.2,Calm,Calm,-,N/A,Fog,Fog,0,2013-05-22 09:58:00
5:58 AM,69.1,68.0,96,29.97,0.2,Calm,Calm,-,N/A,Fog,Fog,0,2013-05-22 10:58:00
6:58 AM,70.0,68.0,93,29.99,0.2,Calm,Calm,-,N/A,Fog,Fog,0,2013-05-22 11:58:00
7:49 AM,71.6,69.8,94,30.01,1.0,Calm,Calm,-,N/A,,Mist,0,2013-05-22 12:49:00
7:58 AM,71.1,70.0,96,30.00,1.0,Calm,Calm,-,N/A,,Overcast,0,2013-05-22 12:58:00
8:10 AM,71.6,69.8,94,30.01,2.5,Calm,Calm,-,N/A,,Overcast,0,2013-05-22 13:10:00
8:17 AM,71.6,69.8,94,30.01,4.0,Calm,Calm,-,N/A,,Overcast,0,2013-05-22 13:17:00
8:58 AM,72.0,70.0,93,30.01,10.0,Calm,Calm,-,N/A,,Mostly Cloudy,0,2013-05-22 13:58:00
9:07 AM,77.0,69.8,78,30.01,10.0,Calm,Calm,-,N/A,,Scattered Clouds,0,2013-05-22 14:07:00
9:19 AM,75.2,69.8,83,30.01,10.0,Calm,Calm,-,N/A,,Mostly Cloudy,0,2013-05-22 14:19:00
9:35 AM,77.0,69.8,78,30.02,10.0,South,4.6,-,N/A,,Scattered Clouds,190,2013-05-22 14:35:00
9:58 AM,80.1,68.0,67,30.01,10.0,SW,5.8,-,N/A,,Clear,220,2013-05-22 14:58:00
10:58 AM,82.0,66.9,60,30.01,10.0,WSW,5.8,-,N/A,,Partly Cloudy,240,2013-05-22 15:58:00
11:58 AM,84.9,66.9,55,30.00,10.0,Variable,5.8,-,N/A,,Mostly Cloudy,0,2013-05-22 16:58:00
12:58 PM,87.1,64.0,46,29.98,10.0,Variable,3.5,-,N/A,,Partly Cloudy,0,2013-05-22 17:58:00
1:58 PM,86.0,63.0,46,29.94,10.0,Variable,6.9,-,N/A,,Clear,0,2013-05-22 18:58:00
2:58 PM,86.0,64.0,48,29.93,10.0,SW,8.1,-,N/A,,Clear,220,2013-05-22 19:58:00
3:58 PM,86.0,64.0,48,29.91,10.0,SW,4.6,-,N/A,,Clear,220,2013-05-22 20:58:00
4:58 PM,82.9,66.9,58,29.90,10.0,Calm,Calm,-,N/A,,Clear,0,2013-05-22 21:58:00
5:58 PM,82.9,70.0,65,29.90,10.0,SW,4.6,-,N/A,,Clear,230,2013-05-22 22:58:00
6:58 PM,81.0,70.0,69,29.92,10.0,Calm,Calm,-,N/A,,Clear,0,2013-05-22 23:58:00
7:58 PM,79.0,70.0,74,29.94,10.0,Calm,Calm,-,N/A,,Clear,0,2013-05-23 00:58:00
8:58 PM,75.9,70.0,82,29.96,10.0,SW,3.5,-,N/A,,Partly Cloudy,220,2013-05-23 01:58:00
9:58 PM,75.0,70.0,84,29.97,10.0,SW,5.8,-,N/A,,Mostly Cloudy,220,2013-05-23 02:58:00
10:58 PM,73.9,70.0,87,29.97,10.0,Calm,Calm,-,N/A,,Clear,0,2013-05-23 03:58:00
11:58 PM,73.0,70.0,90,29.96,10.0,SW,4.6,-,N/A,,Scattered Clouds,220,2013-05-23 04:58:00